Location: Brusselsch Zeekanaal
(50.8667°N, 4.3667°E)
Time: 03:06:44
(UTC+00:00)

ACS3 Solar Sail - Pass Details

Date: 30 January 2026
Orbit: 899 x 968 km, 97.2° (Epoch: 14 February)

Event Time Altitude Azimuth Distance (km) Brightness Sun altitude
Rises 02:49:08 0° 9° (N) 3,608 5.2 -42.3°
Reaches altitude 10° 02:51:39 10° 5° (N) 2,649 4.3 -41.9°
Enters shadow 02:51:42 10° 5° (N) 2,632 4.3 -41.9°
